Home > Weather > Kaufbeuren > Past weeks

Flag for Germany Weather for the Past 2 Weeks in Kaufbeuren, Bavaria, Germany

Now
45 °F

Quite cool.


Feels Like: 43 °F
Forecast: 44 / 55 °F
Wind: 3 mph from Southwest

Location: Altenstadt Airport

Current Time: May 1, 2016 at 6:40:54 PM

Latest Report: May 1, 2016 at 5:20 PM


Visibility: N/A

Pressure: 30.04 "Hg (27.60 "Hg at 693m altitude)

Humidity: 93%

Dew Point: 43 °F

Location of KaufbeurenLocation

Historic Weather in Kaufbeuren — Graph

°F

Kaufbeuren Temperature Yesterday

Maximum temperature yesterday: 63 °F (at 4:20 PM)
Minimum temperature yesterday: 32 °F (at 6:20 AM)
Average temperature yesterday: 48 °F

High & Low Weather Summary for the Past Weeks

 TemperatureHumidityPressure
High64 °F (Apr 21, 5:20 PM)100% (Apr 18, 12:20 AM)30.33 "Hg (Apr 18, 12:20 AM)
Low27 °F (Apr 28, 3:20 AM)31% (Apr 30, 5:20 PM)29.59 "Hg (Apr 26, 9:20 AM)
Average42 °F75%29.95 "Hg
* Reported Apr 16 5:20 PM — May 1 5:20 PM, Kaufbeuren, Weather by CustomWeather, © 2016

Note: Actual official high and low records may vary slightly from our data, if they occured in-between our weather recording intervals... More about our weather records

Advertising

Kaufbeuren Weather History for the Previous 24 Hours

Scroll right to see more
 ConditionsComfort  
Time TempWeatherWind HumidityBarometerVisibility
5:20 PM
Sun, May 1
45 °FQuite cool.3 mph93%30.04 "HgN/A
4:20 PM45 °FQuite cool.2 mph93%30.04 "HgN/A
3:20 PM45 °FQuite cool.5 mph87%30.01 "HgN/A
2:20 PM43 °FQuite cool.8 mph93%30.01 "HgN/A
1:20 PM43 °FQuite cool.9 mph87%29.98 "HgN/A
12:20 PM43 °FQuite cool.13 mph87%29.98 "HgN/A
11:20 AM43 °FQuite cool.13 mph87%29.98 "HgN/A
10:20 AM43 °FQuite cool.12 mph87%29.95 "HgN/A
9:20 AM43 °FQuite cool.13 mph87%29.92 "HgN/A
8:20 AM43 °FQuite cool.10 mph87%29.92 "HgN/A
7:20 AM41 °FQuite cool.12 mph93%29.89 "HgN/A
6:20 AM43 °FQuite cool.12 mph87%29.86 "HgN/A
5:20 AM43 °FQuite cool.10 mph87%29.89 "HgN/A
4:20 AM43 °FQuite cool.9 mph87%29.89 "HgN/A
3:20 AM43 °FQuite cool.17 mph87%29.86 "HgN/A
2:20 AM45 °FQuite cool.12 mph87%29.86 "HgN/A
1:20 AM45 °FQuite cool.16 mph87%29.86 "HgN/A
12:20 AM45 °FQuite cool.21 mph87%29.86 "HgN/A
11:20 PM
Sat, Apr 30
48 °FCool.16 mph66%29.86 "HgN/A
10:20 PM52 °FCool.5 mph44%29.86 "HgN/A
9:20 PM52 °FCool.7 mph47%29.86 "HgN/A
8:20 PM54 °FCool.12 mph47%29.86 "HgN/A
7:20 PM55 °FRefreshingly cool.5 mph51%29.86 "HgN/A
6:20 PM59 °FRefreshingly cool.8 mph39%29.86 "HgN/A
Weather by CustomWeather, © 2016

See weather overviewHow to use our weather pages